Location: Seattle
(47.6064°N, 122.3308°W)
Time: 23:20:24
(UTC-07:00)

ISS - Pass Details

Date: 16 December 2015
Orbit: 411 x 421 km, 51.6° (Epoch: 16 October)

Event Time Altitude Azimuth Distance (km) Brightness Sun altitude
Rises 17:33:00 0° 290° (WNW) 2,361 0.9 -11.9°
Reaches altitude 10° 17:35:18 10° 277° (W) 1,498 0.1 -12.3°
Maximum altitude 17:38:08 26° 219° (SW) 870 -1.4 -12.7°
Drops below altitude 10° 17:41:00 10° 161° (SSE) 1,500 -0.9 -13.2°
Sets 17:43:18 0° 148° (SSE) 2,365 -0.1 -13.5°
